This demonstration page uses our WeatherBlox Daily Observations layout. Learn more.

Left ArrowRight Arrow

38.06084, -97.92977

Hourly Observations for November 25, 2022

Temp ( °F °C ) Dew Point ( °F °C ) Humidity (%) Winds ( mph kmh ) Pressure ( in mb ) Visibility ( mi km ) Precip ( " mm )
12:52 am 00:52 Clear 39 3.9 30 -1.1 70 70 N 9 15 30.34 1027 10 16 0.00 0.00
1:52 am 01:52 Clear 36 2.2 29 -1.7 75 75 N 10 17 30.35 1028 10 16 0.00 0.00
2:52 am 02:52 Clear 37 2.8 29 -1.7 72 72 N 12 19 30.35 1028 10 16 0.00 0.00
3:52 am 03:52 Clear 34 1.1 29 -1.7 82 82 NNW 10 17 30.35 1028 10 16 0.00 0.00
4:52 am 04:52 Clear 35 1.7 29 -1.7 78 78 N 12 19 30.34 1028 10 16 0.00 0.00
5:52 am 05:52 Clear 33 0.6 28 -2.2 81 81 N 9 15 30.35 1028 10 16 0.00 0.00
6:52 am 06:52 Clear 30 -1.1 27 -2.8 88 88 WNW 6 9 30.39 1029 10 16 0.00 0.00
7:52 am 07:52 Sunny 33 0.6 29 -1.7 85 85 NNW 9 15 30.37 1029 10 16 0.00 0.00
8:52 am 08:52 Sunny 37 2.8 30 -1.1 75 75 NNW 8 13 30.41 1030 10 16 0.00 0.00
9:52 am 09:52 Sunny 41 5 30 -1.1 65 65 N 8 13 30.38 1029 10 16 0.00 0.00
10:52 am 10:52 Sunny 46 7.8 31 -0.6 55 55 N 8 13 30.37 1029 10 16 0.00 0.00
11:52 am 11:52 Sunny 49 9.4 31 -0.6 50 50 N 8 13 30.33 1027 10 16 0.00 0.00
12:52 pm 12:52 Sunny 51 10.6 31 -0.6 46 46 NNE 3 6 30.31 1026 10 16 0.00 0.00
1:52 pm 13:52 Sunny 52 11.1 28 -2.2 39 39 VRB 3 6 30.28 1025 10 16 0.00 0.00
2:52 pm 14:52 Sunny 54 12.2 28 -2.2 37 37 Calm 30.25 1024 10 16 0.00 0.00
3:52 pm 15:52 Sunny 54 12.2 27 -2.8 35 35 NE 3 6 30.24 1024 10 16 0.00 0.00
4:52 pm 16:52 Sunny 48 8.9 27 -2.8 44 44 SE 3 6 30.22 1023 10 16 0.00 0.00
5:52 pm 17:52 Clear 35 1.7 25 -3.9 66 66 Calm 30.23 1024 10 16 0.00 0.00
6:52 pm 18:52 Clear 32 0 26 -3.3 78 78 Calm 30.24 1024 10 16 0.00 0.00
7:52 pm 19:52 Clear 27 -2.8 23 -5 85 85 Calm 30.24 1024 10 16 0.00 0.00
8:52 pm 20:52 Clear 30 -1.1 26 -3.3 85 85 Calm 30.22 1023 10 16 0.00 0.00
9:52 pm 21:52 Clear 29 -1.7 25 -3.9 85 85 Calm 30.20 1023 10 16 0.00 0.00
10:52 pm 22:52 Clear 28 -2.2 25 -3.9 88 88 Calm 30.20 1023 10 16 0.00 0.00
11:52 pm 23:52 Clear 26 -3.3 23 -5 88 88 Calm 30.18 1022 10 16 0.00 0.00

Powered by AerisWeather